星链-4280 (STARLINK-4280 )

导读

STARLINK-4280是美国太空探索技术公司(SpaceX)星链(Starlink)星座的成员,于2022年7月17日发射入轨。星链计划旨在构建全球低轨卫星互联网,为偏远地区、海洋和空中等场景提供高速低延迟网络服务,该卫星也承担着为全球用户提供宽带接入的通信任务,不过星链大规模部署也引发了太空碎片与轨道安全的争议。

Basic Information
目录编号:
53178
目录名称:
STARLINK-4280
国际标识:
2022-083AY
轨道中心:
EARTH
卫星名称:
星链-4280
卫星全名:
星链-4280 (STARLINK-4280 )
卫星状态:
在轨 (已飞行1431 天)
发射日期:
2022-07-17 UTC
国别 :
美国 (US)
星等 :
--
Orbit Information
数据来源 国际轨道数据 AOE轨道数据
星历时间 2026-06-17T12:12:46+0800
9小时前
查看轨道信息
2026-06-16T00:00:00+0800
1天前
查看轨道信息
半长轴 6917.907km 6917.895km
偏心率 0.0001321 0.0000974
轨道倾角 53.161° 53.160°
近地点辐角 88.756° 114.602°
升交点赤经 77.417° 84.199°
平近点角 271.358° 325.175°
近地点 538.856km 539.084km
远地点 540.684km 540.432km
周期 95.438分钟 95.438分钟
每日圈数 15.088314 15.088355
Detailed Information
固有亮度:
5
最大亮度:
2.5
卫星平台:
Starlink v1.5
覆盖范围:
全球
运营商:
太空探索技术公司
运营商所在国:
美国
制造商(研发单位):
太空探索技术公司
制造商所在国:
美国
使用方式:
暂无
Satellite Introduction
星链(Starlink)计划是由太空探索技术公司(SpaceX)提出的一个巨型低轨卫星互联网星座项目,计划在2019年至2024年间在太空搭建由约1.2万颗卫星组成的“星链”网络,其中1584颗将部署在地球上空550千米处的近地轨道,并从2020年开始工作。该卫星仍在工作。
2D Orbit Map
3D Orbit Map
Orbit Altitude Analysis Chart
Orbit Inclination Analysis Chart
Orbit Comprehensive Analysis Chart
View Comprehensive Chart